Wind_Speed
16 17 18 19 19 19 20 20 19 18 18 18 18 18 18 19 20 20 20 20 20 20 20 20 21 22 23 23 24 25 25 25 25 26 25 25 25 25 25 25 24 25 25
17 18 19 19 20 21 21 21 21 20 19 19 19 19 19 20 20 20 21 21 21 21 21 21 21 22 23 24 24 25 25 25 25 25 25 25 25 25 25 25 26 25 25
19 19 20 21 21 22 22 23 22 22 21 20 20 20 21 21 21 21 21 22 22 22 21 22 22 23 23 24 24 25 25 25 25 26 26 26 26 26 26 26 26 26 25
21 22 22 22 23 23 23 23 23 23 22 22 21 22 22 22 22 22 22 23 22 22 22 22 22 23 24 24 25 25 25 25 25 26 26 26 26 27 27 27 27 27 27
23 23 24 24 24 24 24 24 24 24 23 23 23 23 23 24 24 24 24 24 23 23 23 24 24 24 24 25 26 26 26 26 26 26 27 27 27 28 28 28 28 28 28
24 24 24 25 25 25 26 25 25 25 25 25 24 25 25 25 24 24 24 24 24 25 25 25 25 25 26 26 27 27 27 27 27 27 27 28 28 28 28 29 29 29 29
25 26 26 26 27 27 27 27 26 27 27 27 27 27 26 26 26 25 25 25 25 25 26 26 26 26 26 27 27 28 28 29 29 28 27 28 29 28 28 29 29 30 30
26 27 27 27 28 27 28 27 26 27 27 28 28 28 27 27 26 26 26 26 27 27 27 28 28 29 29 29 29 29 29 29 29 29 28 29 29 29 29 29 30 31 31
28 28 28 28 28 28 27 27 28 28 28 28 28 28 27 27 27 26 27 27 28 28 29 29 30 30 30 31 31 30 30 30 30 30 29 30 30 31 31 30 30 31 32
28 28 28 28 28 28 28 28 29 29 29 29 28 28 28 28 28 27 27 28 28 29 29 30 30 31 31 31 31 31 30 30 31 31 31 31 30 31 32 32 32 32 32
28 28 28 28 29 29 29 29 30 30 30 30 30 29 29 29 29 29 29 29 29 30 30 31 31 31 31 31 31 31 31 31 31 31 31 31 32 32 32 32 32 32 33
28 29 29 29 29 30 30 30 31 31 30 30 30 29 29 29 30 30 30 30 30 31 31 31 31 31 32 32 32 33 33 32 31 31 31 32 32 32 32 33 33 33 33
29 30 30 30 31 31 31 31 31 31 31 30 30 30 30 30 31 31 31 31 31 31 32 32 31 32 32 32 32 33 33 33 32 32 32 32 31 32 32 33 34 33 33
31 31 32 32 32 32 32 32 32 31 30 30 30 30 31 31 31 32 32 32 32 32 32 32 32 33 33 32 32 33 33 33 32 32 32 32 32 32 32 33 34 33 34
33 33 33 33 34 34 33 32 32 31 30 31 31 31 31 31 31 31 31 31 31 31 31 32 32 33 32 32 33 32 32 32 32 32 32 32 32 32 32 32 32 32 33
33 33 33 33 34 33 32 31 30 30 30 30 30 31 31 31 32 32 31 31 31 31 32 32 32 32 32 32 32 32 32 31 31 31 32 32 32 32 32 31 30 30 32
32 32 32 32 32 31 31 31 30 30 30 30 30 31 31 32 32 32 31 31 31 31 31 32 31 31 31 31 31 31 31 30 30 30 31 31 31 32 32 31 30 30 31
31 31 31 31 30 30 30 31 31 31 30 30 31 31 31 31 31 31 31 31 31 31 31 31 31 31 31 30 30 30 30 30 30 30 30 29 30 30 30 30 31 31 31
30 30 30 30 29 29 29 30 30 30 31 31 31 31 31 31 31 31 32 32 32 32 32 32 32 31 31 30 30 30 30 30 29 29 29 29 29 29 29 29 30 31 31
29 29 29 29 28 28 28 29 29 29 30 30 30 30 30 30 31 31 31 32 32 32 32 32 31 31 30 30 30 30 29 28 28 27 27 28 28 28 28 28 28 29 29
29 29 29 28 28 27 27 28 28 28 29 29 29 29 29 30 30 31 31 31 31 31 31 31 31 30 29 29 28 28 28 28 27 26 27 27 27 27 27 27 27 27 28
28 28 28 28 28 27 27 27 28 28 28 29 28 29 29 29 30 30 30 30 30 30 30 30 30 29 28 28 28 28 27 27 26 26 26 26 25 26 26 26 26 27 27
27 27 27 27 27 27 27 27 28 28 28 28 28 29 29 29 29 29 29 29 29 28 28 28 28 28 27 27 27 27 26 25 26 25 25 25 24 24 25 25 25 25 25
26 27 27 28 28 27 27 27 28 28 28 28 28 28 28 28 28 28 28 28 28 28 28 28 28 27 27 27 26 25 25 25 25 25 25 24 24 24 24 24 23 24 24
26 26 26 26 27 27 27 27 27 27 27 27 27 27 27 28 28 28 27 27 27 27 27 27 27 27 27 26 25 24 24 24 24 24 24 24 23 23 23 22 22 23 23
27 26 26 26 26 26 26 26 26 26 26 26 26 26 26 27 27 27 26 26 26 26 26 26 26 26 25 24 24 24 24 24 24 24 23 23 23 23 23 22 22 23 23
Wind_Direction
287 287 287 288 288 289 292 293 293 293 294 293 291 287 285 283 280 279 279 278 277 276 274 271 270 268 268 268 269 270 270 270 270 268 268 266 265 264 263 262 263 262 261
288 287 288 288 289 289 290 291 292 291 291 291 290 289 287 285 282 280 279 279 278 277 274 273 271 270 271 271 271 271 272 272 271 270 268 267 265 264 264 263 262 260 260
288 289 287 287 288 289 290 290 290 289 289 289 288 288 287 286 284 282 280 280 279 277 275 275 273 272 271 272 273 273 273 273 273 271 267 266 266 264 263 263 262 261 260
287 288 287 287 286 287 288 289 288 288 287 288 287 287 287 286 284 282 281 281 279 276 276 277 276 275 274 274 275 274 275 274 274 272 269 266 266 265 264 263 262 261 261
286 287 287 288 287 287 287 287 287 287 286 284 284 285 285 285 283 281 280 279 277 276 276 276 277 277 277 278 276 276 276 276 275 272 272 269 267 265 263 263 263 261 260
286 288 288 287 287 287 287 287 286 286 285 283 282 285 285 284 282 281 279 278 278 277 276 276 276 278 279 279 277 277 277 276 275 273 272 271 269 267 264 263 262 261 260
286 287 288 288 287 287 286 285 286 285 284 283 284 284 284 283 281 280 279 278 278 277 277 277 277 279 279 278 278 278 278 278 278 274 273 272 269 267 265 264 263 262 260
286 286 287 287 286 286 286 286 286 286 284 284 284 283 282 281 279 278 278 279 278 277 277 277 278 279 279 279 279 279 278 278 278 275 272 270 268 266 266 264 263 263 261
286 285 285 285 285 285 285 285 286 286 285 285 285 283 282 280 279 279 279 280 280 279 278 277 279 280 279 278 279 278 278 277 277 275 272 271 269 267 266 265 263 262 261
285 285 285 285 284 285 285 285 286 285 284 285 284 283 281 279 279 280 280 280 281 281 280 280 280 281 280 278 278 278 278 277 276 276 274 271 269 267 266 266 265 263 261
285 285 285 285 285 285 285 286 286 285 284 284 283 281 280 279 279 279 279 279 280 281 282 281 281 281 279 278 277 277 278 277 276 276 274 272 270 268 267 266 265 264 262
284 284 284 285 285 286 285 286 285 283 283 282 280 279 280 279 280 280 280 280 280 281 281 281 281 281 279 278 277 277 277 277 276 274 274 273 271 268 266 265 265 264 264
284 284 284 284 285 286 285 285 284 284 283 280 279 279 280 280 281 281 281 282 281 281 281 281 281 281 280 280 279 279 278 277 276 274 272 272 271 269 266 265 265 263 264
283 283 284 285 285 286 286 285 284 283 282 280 280 281 281 281 281 281 282 282 282 282 282 282 282 282 281 280 280 280 279 277 275 274 271 269 269 269 269 266 264 261 261
283 284 285 285 286 285 284 283 283 282 282 282 281 282 281 281 281 281 282 283 283 282 282 282 283 283 283 282 280 279 278 277 275 274 272 270 269 269 267 265 264 262 260
284 285 286 285 284 283 283 282 282 283 284 284 283 282 282 281 281 280 281 282 282 283 283 283 283 282 282 283 282 281 280 278 275 274 272 271 270 268 267 264 263 261 260
284 285 286 286 285 284 282 282 282 283 284 284 283 282 282 282 281 280 280 281 283 283 283 283 283 282 283 283 282 282 281 278 276 274 272 270 269 269 267 265 263 262 261
283 284 285 285 284 284 283 283 283 282 283 284 284 283 282 281 281 280 280 281 283 284 285 284 284 283 283 283 282 281 280 278 277 275 273 271 270 269 267 265 264 264 263
283 285 286 285 285 284 284 285 285 283 282 282 283 283 281 281 281 280 281 282 283 284 284 285 285 285 283 282 282 281 280 279 278 276 273 271 269 268 268 267 265 265 264
284 285 285 285 284 285 286 287 287 285 284 282 282 283 282 281 282 281 280 281 282 283 284 285 286 285 283 281 281 281 280 279 278 276 274 272 271 269 268 267 266 265 263
284 283 283 283 283 284 285 287 288 287 287 285 284 284 284 283 283 282 282 283 283 283 284 285 285 284 283 281 281 281 281 280 279 278 276 273 271 270 269 267 266 265 263
282 282 281 282 283 283 284 285 287 288 289 287 285 285 286 286 285 284 284 283 283 282 283 284 284 283 282 282 281 280 279 278 278 278 276 274 272 271 269 268 267 266 265
280 281 281 281 282 283 284 285 286 288 289 289 287 286 285 286 285 284 284 284 284 284 283 284 284 284 282 282 282 280 278 277 277 276 275 273 272 272 271 270 268 266 266
281 281 281 281 282 284 285 285 286 288 290 290 290 288 286 285 285 284 284 283 283 284 284 285 284 284 284 283 281 279 278 277 276 273 272 272 272 272 272 271 269 268 266
282 283 283 283 283 284 286 286 287 288 290 291 292 291 289 288 287 285 284 283 283 284 284 284 284 284 283 281 279 278 278 277 275 273 270 270 270 270 270 269 268 268 267
281 282 283 283 284 285 286 287 287 288 289 291 293 293 292 291 288 286 285 283 283 283 284 284 284 283 280 279 280 279 277 276 275 273 270 269 268 268 268 268 268 268 269
Height
5790 5789 5788 5787 5786 5785 5784 5782 5780 5779 5778 5776 5775 5773 5772 5771 5771 5770 5769 5769 5768 5768 5767 5767 5767 5767 5767 5767 5767 5767 5767 5766 5766 5766 5766 5766 5766 5766 5767 5768 5769 5770 5770
5786 5785 5784 5782 5781 5780 5778 5777 5775 5774 5772 5771 5770 5768 5767 5766 5765 5764 5764 5763 5763 5762 5761 5761 5761 5761 5761 5760 5760 5760 5760 5759 5759 5759 5759 5759 5759 5759 5760 5761 5762 5763 5764
5781 5780 5779 5777 5776 5774 5773 5771 5770 5768 5767 5765 5764 5763 5762 5761 5760 5759 5758 5757 5757 5756 5756 5755 5755 5755 5754 5754 5754 5753 5753 5752 5752 5751 5751 5751 5752 5752 5753 5754 5754 5755 5757
5775 5774 5773 5771 5770 5769 5767 5765 5764 5762 5761 5760 5758 5757 5756 5755 5754 5753 5752 5751 5750 5750 5749 5749 5749 5748 5748 5748 5747 5746 5746 5745 5744 5744 5743 5744 5744 5745 5746 5747 5747 5748 5749
5769 5768 5767 5765 5764 5762 5761 5759 5758 5756 5755 5753 5752 5751 5750 5749 5748 5747 5746 5745 5744 5744 5743 5743 5742 5742 5741 5741 5740 5739 5738 5738 5737 5736 5736 5736 5736 5737 5738 5739 5740 5740 5741
5763 5761 5760 5759 5757 5756 5754 5752 5751 5749 5748 5747 5746 5745 5743 5742 5741 5740 5739 5738 5738 5737 5737 5736 5735 5735 5734 5733 5732 5732 5731 5730 5729 5728 5728 5728 5728 5729 5729 5730 5731 5732 5733
5756 5755 5753 5752 5750 5748 5747 5745 5744 5742 5741 5740 5739 5737 5736 5735 5734 5733 5732 5732 5731 5730 5729 5729 5728 5727 5726 5725 5725 5724 5723 5722 5721 5720 5719 5719 5719 5720 5721 5722 5723 5723 5725
5749 5747 5745 5744 5742 5741 5739 5738 5736 5735 5734 5732 5731 5730 5728 5727 5726 5725 5724 5724 5723 5723 5722 5721 5720 5719 5718 5717 5716 5715 5714 5713 5712 5711 5710 5711 5711 5711 5712 5713 5713 5714 5715
5741 5739 5737 5736 5735 5733 5732 5730 5729 5727 5726 5724 5723 5722 5720 5719 5718 5717 5717 5716 5715 5714 5713 5712 5712 5711 5710 5709 5708 5707 5706 5705 5703 5702 5701 5701 5701 5702 5702 5703 5704 5705 5706
5733 5731 5729 5728 5727 5725 5724 5722 5721 5719 5718 5716 5715 5714 5712 5711 5710 5710 5709 5708 5707 5706 5705 5704 5703 5702 5700 5699 5699 5698 5696 5695 5694 5693 5692 5692 5692 5692 5692 5693 5694 5695 5696
5725 5723 5721 5720 5719 5717 5716 5714 5713 5711 5709 5708 5707 5705 5704 5703 5702 5701 5700 5700 5699 5697 5696 5695 5694 5692 5691 5690 5689 5688 5687 5686 5685 5684 5683 5682 5682 5682 5682 5683 5683 5685 5686
5716 5715 5713 5712 5710 5709 5707 5706 5704 5702 5701 5699 5698 5697 5696 5695 5694 5693 5692 5691 5690 5688 5687 5686 5684 5683 5681 5680 5679 5678 5677 5676 5675 5674 5673 5672 5671 5671 5671 5672 5672 5673 5675
5708 5706 5705 5703 5702 5700 5698 5697 5695 5693 5692 5691 5689 5688 5687 5686 5685 5684 5683 5681 5680 5679 5677 5676 5675 5673 5672 5670 5669 5668 5667 5666 5665 5664 5663 5662 5661 5661 5661 5661 5662 5663 5664
5698 5697 5695 5694 5692 5691 5689 5687 5686 5684 5683 5682 5680 5679 5678 5677 5676 5674 5673 5672 5670 5669 5668 5666 5665 5663 5662 5660 5659 5658 5656 5655 5655 5653 5652 5652 5651 5651 5651 5651 5652 5652 5654
5689 5687 5686 5684 5682 5681 5679 5678 5676 5675 5673 5672 5671 5670 5668 5667 5666 5665 5663 5662 5661 5659 5658 5656 5654 5653 5652 5650 5649 5647 5646 5645 5644 5643 5642 5641 5641 5640 5640 5640 5641 5642 5643
5679 5677 5676 5674 5672 5671 5669 5668 5666 5665 5664 5662 5661 5659 5658 5657 5656 5655 5653 5652 5651 5649 5648 5646 5644 5643 5641 5640 5638 5637 5635 5634 5633 5633 5632 5631 5631 5630 5630 5630 5630 5631 5633
5669 5668 5666 5664 5662 5661 5659 5658 5657 5656 5654 5652 5651 5649 5648 5647 5645 5644 5643 5642 5641 5639 5638 5636 5634 5633 5631 5629 5628 5627 5625 5624 5623 5622 5622 5621 5620 5620 5620 5620 5621 5622 5623
5659 5658 5656 5655 5653 5651 5650 5649 5647 5646 5645 5643 5641 5639 5638 5636 5635 5634 5633 5632 5631 5629 5628 5626 5624 5623 5621 5620 5618 5617 5615 5614 5613 5612 5611 5611 5610 5610 5610 5611 5611 5612 5613
5650 5648 5647 5645 5643 5642 5641 5639 5638 5636 5635 5633 5631 5629 5628 5626 5625 5623 5622 5621 5620 5619 5617 5616 5614 5612 5611 5609 5608 5607 5606 5604 5603 5602 5601 5601 5601 5601 5601 5601 5601 5602 5603
5640 5638 5637 5636 5634 5633 5631 5630 5628 5626 5625 5623 5621 5620 5618 5616 5615 5613 5612 5611 5610 5608 5607 5605 5603 5602 5600 5599 5598 5597 5595 5594 5593 5592 5591 5591 5591 5591 5591 5592 5592 5593 5593
5630 5629 5627 5626 5625 5624 5623 5621 5619 5617 5616 5614 5612 5610 5608 5606 5605 5604 5602 5601 5599 5598 5596 5595 5593 5592 5590 5589 5588 5587 5586 5585 5584 5583 5583 5582 5582 5582 5582 5582 5583 5583 5584
5621 5620 5619 5618 5616 5615 5614 5612 5611 5609 5607 5604 5603 5601 5598 5597 5595 5594 5592 5591 5589 5587 5586 5584 5583 5582 5580 5579 5578 5577 5576 5576 5575 5574 5574 5573 5573 5573 5573 5574 5574 5575 5575
5612 5611 5610 5609 5608 5606 5605 5603 5602 5600 5598 5595 5593 5591 5589 5587 5586 5584 5582 5581 5579 5577 5576 5574 5573 5572 5571 5570 5569 5568 5567 5567 5566 5566 5565 5565 5565 5565 5565 5565 5566 5566 5567
5603 5602 5601 5600 5599 5597 5596 5594 5593 5591 5589 5587 5584 5582 5580 5578 5576 5574 5573 5571 5570 5568 5566 5565 5564 5562 5561 5560 5559 5559 5558 5558 5557 5557 5557 5557 5557 5557 5557 5557 5558 5558 5559
5594 5593 5592 5591 5590 5588 5587 5586 5584 5582 5580 5578 5576 5573 5571 5569 5567 5565 5563 5562 5560 5559 5557 5556 5555 5553 5552 5551 5551 5550 5550 5549 5549 5548 5549 5549 5549 5549 5549 5550 5550 5550 5551
5585 5584 5583 5582 5581 5580 5578 5577 5575 5573 5571 5569 5567 5565 5562 5560 5558 5556 5554 5553 5551 5550 5548 5547 5546 5545 5544 5543 5542 5542 5541 5541 5540 5540 5540 5541 5541 5541 5542 5542 5543 5543 5543